EDT,Max TemperatureF,Mean TemperatureF,Min TemperatureF,Max Dew PointF,MeanDew PointF,Min DewpointF,Max Humidity, Mean Humidity, Min Humidity, Max Sea Level PressureIn, Mean Sea Level PressureIn, Min Sea Level PressureIn, Max VisibilityMiles, Mean VisibilityMiles, Min VisibilityMiles, Max Wind SpeedMPH, Mean Wind SpeedMPH, Max Gust SpeedMPH,PrecipitationIn, CloudCover, Events, WindDirDegrees
2014-3-1,41,30,19,28,18,7,65,57,38,30.21,30.17,30.13,10,10,10,18,12,22,0.00,6,,246
2014-3-2,51,45,39,46,39,27,100,86,57,30.15,30.04,29.91,10,6,0,21,15,30,0.21,8,Fog-Rain,259
2014-3-3,44,26,8,45,20,1,100,96,73,30.13,29.98,29.87,10,4,0,12,5,16,0.80,6,Rain-Snow,337
2014-3-4,26,16,6,18,3,-20,86,54,18,30.16,30.11,30.08,10,10,10,14,6,,0.00,0,,113
2014-3-5,41,32,24,21,17,0,74,55,20,30.23,30.13,30.06,10,10,7,15,9,,0.05,0,,285
2014-3-6,26,20,15,18,14,10,93,73,59,30.29,30.21,30.11,10,10,4,15,10,22,0.00,1,,90
2014-3-7,39,28,17,36,27,18,100,92,75,30.10,30.01,29.94,10,5,0,14,8,17,0.00,5,Fog-Snow,42
2014-3-8,50,42,35,34,30,27,81,64,40,30.02,29.99,29.95,10,9,5,22,14,30,0.00,1,,279
2014-3-9,41,36,32,34,27,21,93,71,49,30.07,30.02,29.95,10,7,3,25,19,36,0.00,3,,280
2014-3-10,55,44,33,28,25,21,75,53,28,29.99,29.89,29.81,10,8,3,25,20,39,0.00,0,,271
2014-3-11,57,50,44,37,34,28,71,55,41,29.84,29.81,29.78,10,9,5,26,18,33,0.00,0,,267
2014-3-12,55,38,19,50,36,16,100,75,44,29.77,29.48,29.24,10,8,0,39,15,55,0.16,6,Rain-Snow,252
2014-3-13,21,14,6,16,4,-2,93,64,39,30.07,29.80,29.49,10,8,0,31,21,51,0.00,3,Snow,292
2014-3-14,50,34,17,21,14,3,63,42,30,30.16,30.07,29.98,10,10,5,20,15,28,0.00,1,,236
2014-3-15,50,46,41,32,25,19,66,48,32,30.09,29.98,29.89,10,10,10,29,19,43,0.00,4,,276
2014-3-16,42,32,21,30,24,21,100,73,42,30.09,29.99,29.84,10,6,0,16,7,26,0.06,4,Snow,92
2014-3-17,21,19,17,21,18,16,100,96,93,29.90,29.82,29.76,2,0,0,15,9,23,0.00,8,Fog-Snow,91
2014-3-18,30,24,19,30,24,18,100,98,93,30.09,30.00,29.89,10,1,0,9,2,,0.16,8,Fog-Snow,93
2014-3-19,46,37,28,43,36,28,100,93,66,30.11,30.01,29.88,10,4,0,20,10,32,0.00,6,Fog-Rain-Snow,190
2014-3-20,44,38,33,37,24,16,93,61,34,30.01,29.94,29.88,10,10,10,26,19,37,0.00,3,,278
2014-3-21,55,44,33,27,23,19,65,48,28,30.08,30.04,29.99,10,10,10,23,17,30,0.00,0,,261
2014-3-22,55,48,42,32,22,16,50,37,21,30.06,29.99,29.93,10,10,10,26,17,34,0.00,1,,272
2014-3-23,41,31,21,28,23,12,93,73,45,30.07,30.02,29.96,10,10,7,21,10,28,0.00,4,,301
2014-3-24,33,22,12,10,6,1,79,55,25,30.13,30.06,30.01,10,10,10,17,11,26,0.00,2,,288
2014-3-25,26,22,17,25,16,7,100,78,46,30.02,29.83,29.72,10,6,0,17,6,29,0.07,7,Rain-Snow,321
2014-3-26,24,17,10,16,7,1,93,65,46,30.19,30.00,29.83,10,8,2,23,15,39,0.00,3,Snow,292
2014-3-27,42,30,17,19,13,3,68,48,34,30.29,30.23,30.16,10,10,10,15,11,23,0.00,2,,198
2014-3-28,53,45,37,48,40,19,100,82,48,30.17,30.12,30.08,10,9,4,18,11,26,0.20,5,Rain,209
2014-3-29,51,43,33,52,46,34,100,98,87,30.16,29.90,29.66,10,3,0,29,8,34,0.98,7,Fog-Rain-Snow,132
2014-3-30,33,28,24,34,27,19,100,92,60,29.95,29.77,29.63,10,5,0,32,23,47,0.07,6,Snow,302
2014-3-31,57,42,28,27,20,12,64,45,30,30.19,30.11,29.94,10,8,3,31,19,44,0.00,0,,303